QPF
0.04 0.03 0.02 0.01 0.01 0.01 0.02 0.03 0.03 0.04 0.03 0.02 0.01 0.01 0.00 0.00 0.00 0.01 0.01 0.01 0.01 0.02 0.03 0.03 0.03 0.03 0.03 0.03 0.02 0.01 0.01 0.01 0.00 0.00 0.01 0.01 0.01 0.01
0.04 0.03 0.02 0.01 0.01 0.01 0.01 0.02 0.02 0.02 0.03 0.02 0.01 0.00 0.00 0.00 0.00 0.00 0.01 0.01 0.01 0.02 0.03 0.02 0.01 0.01 0.01 0.01 0.01 0.02 0.02 0.01 0.01 0.01 0.01 0.01 0.01 0.01
0.04 0.04 0.03 0.02 0.02 0.02 0.02 0.02 0.01 0.02 0.03 0.02 0.01 0.01 0.00 0.00 0.00 0.00 0.00 0.00 0.01 0.01 0.01 0.01 0.01 0.01 0.01 0.01 0.01 0.02 0.03 0.02 0.01 0.01 0.01 0.01 0.01 0.01
0.03 0.04 0.04 0.04 0.04 0.03 0.02 0.02 0.01 0.02 0.02 0.02 0.01 0.01 0.00 0.00 0.00 0.00 0.00 0.00 0.00 0.00 0.00 0.00 0.00 0.01 0.01 0.01 0.01 0.01 0.02 0.03 0.01 0.01 0.01 0.01 0.01 0.01
0.02 0.03 0.04 0.05 0.05 0.04 0.03 0.02 0.02 0.02 0.02 0.02 0.01 0.00 0.00 0.00 0.00 0.00 0.00 0.00 0.00 0.00 0.00 0.00 0.00 0.00 0.00 0.00 0.01 0.01 0.01 0.02 0.02 0.02 0.01 0.01 0.01 0.01
0.02 0.02 0.03 0.03 0.04 0.05 0.05 0.04 0.03 0.02 0.02 0.02 0.01 0.01 0.00 0.00 0.00 0.00 0.00 0.00 0.00 0.00 0.00 0.00 0.00 0.00 0.00 0.00 0.00 0.01 0.02 0.02 0.02 0.01 0.01 0.01 0.01 0.01
0.02 0.02 0.02 0.04 0.04 0.04 0.04 0.04 0.04 0.03 0.02 0.02 0.02 0.02 0.01 0.01 0.00 0.00 0.00 0.00 0.00 0.00 0.01 0.00 0.00 0.00 0.00 0.00 0.00 0.01 0.01 0.02 0.02 0.02 0.01 0.01 0.01 0.01
0.01 0.01 0.02 0.03 0.04 0.05 0.04 0.04 0.05 0.04 0.04 0.03 0.03 0.02 0.02 0.01 0.01 0.00 0.00 0.00 0.00 0.00 0.00 0.00 0.00 0.00 0.00 0.00 0.00 0.01 0.01 0.01 0.01 0.01 0.01 0.01 0.01 0.01
0.01 0.01 0.02 0.02 0.03 0.04 0.04 0.05 0.05 0.04 0.04 0.03 0.03 0.03 0.02 0.01 0.01 0.01 0.00 0.00 0.00 0.00 0.00 0.00 0.00 0.00 0.00 0.00 0.00 0.01 0.01 0.01 0.01 0.01 0.01 0.01 0.01 0.01
0.01 0.01 0.01 0.02 0.03 0.04 0.04 0.03 0.03 0.03 0.03 0.03 0.03 0.03 0.02 0.02 0.01 0.01 0.00 0.00 0.00 0.00 0.00 0.00 0.00 0.00 0.00 0.00 0.01 0.00 0.00 0.01 0.01 0.01 0.01 0.00 0.00 0.00
0.00 0.00 0.01 0.02 0.03 0.04 0.04 0.04 0.03 0.02 0.03 0.04 0.03 0.02 0.02 0.02 0.02 0.02 0.01 0.01 0.00 0.00 0.00 0.00 0.00 0.00 0.00 0.01 0.01 0.01 0.01 0.00 0.00 0.01 0.01 0.01 0.00 0.00
0.01 0.01 0.01 0.01 0.03 0.05 0.05 0.05 0.03 0.02 0.03 0.03 0.03 0.03 0.02 0.02 0.02 0.01 0.01 0.01 0.01 0.01 0.01 0.00 0.00 0.00 0.01 0.00 0.00 0.01 0.01 0.01 0.00 0.00 0.01 0.01 0.01 0.01
0.02 0.01 0.01 0.01 0.02 0.04 0.05 0.04 0.04 0.03 0.03 0.04 0.04 0.03 0.02 0.02 0.01 0.01 0.01 0.01 0.01 0.01 0.01 0.01 0.01 0.01 0.01 0.00 0.00 0.00 0.00 0.00 0.00 0.00 0.01 0.01 0.01 0.01
0.02 0.02 0.02 0.02 0.02 0.02 0.04 0.04 0.05 0.05 0.04 0.04 0.04 0.04 0.03 0.02 0.01 0.01 0.01 0.01 0.01 0.01 0.01 0.01 0.01 0.01 0.00 0.00 0.00 0.00 0.01 0.01 0.01 0.01 0.01 0.01 0.01 0.01
0.01 0.02 0.03 0.03 0.03 0.03 0.03 0.04 0.04 0.04 0.05 0.04 0.04 0.04 0.03 0.03 0.02 0.02 0.02 0.02 0.02 0.01 0.01 0.01 0.01 0.01 0.01 0.00 0.00 0.00 0.00 0.01 0.01 0.01 0.01 0.01 0.01 0.01
0.02 0.02 0.03 0.03 0.03 0.03 0.04 0.04 0.04 0.04 0.04 0.04 0.04 0.04 0.03 0.03 0.03 0.02 0.02 0.02 0.01 0.01 0.01 0.01 0.01 0.01 0.01 0.01 0.01 0.01 0.01 0.01 0.01 0.01 0.01 0.01 0.01 0.01
0.02 0.02 0.02 0.02 0.02 0.03 0.04 0.04 0.04 0.04 0.05 0.04 0.04 0.04 0.04 0.03 0.03 0.02 0.02 0.02 0.02 0.01 0.01 0.01 0.01 0.01 0.01 0.01 0.01 0.01 0.01 0.01 0.01 0.01 0.01 0.01 0.01 0.01
0.02 0.01 0.01 0.01 0.01 0.02 0.04 0.05 0.05 0.05 0.05 0.05 0.05 0.05 0.04 0.03 0.03 0.02 0.02 0.02 0.02 0.02 0.01 0.01 0.00 0.00 0.00 0.01 0.01 0.02 0.01 0.01 0.01 0.01 0.01 0.01 0.01 0.01
0.01 0.01 0.01 0.01 0.01 0.02 0.03 0.04 0.05 0.06 0.06 0.07 0.07 0.07 0.05 0.04 0.03 0.03 0.02 0.02 0.02 0.01 0.01 0.01 0.01 0.01 0.01 0.01 0.01 0.01 0.01 0.01 0.01 0.01 0.01 0.01 0.01 0.01
0.02 0.02 0.01 0.01 0.01 0.02 0.02 0.03 0.05 0.06 0.06 0.06 0.07 0.07 0.06 0.05 0.04 0.04 0.03 0.02 0.02 0.02 0.02 0.01 0.00 0.01 0.01 0.01 0.01 0.01 0.01 0.01 0.01 0.01 0.01 0.00 0.01 0.01
0.01 0.02 0.02 0.02 0.02 0.02 0.03 0.04 0.05 0.06 0.06 0.05 0.06 0.06 0.06 0.05 0.04 0.03 0.03 0.02 0.02 0.02 0.02 0.01 0.01 0.00 0.01 0.01 0.00 0.00 0.00 0.00 0.00 0.01 0.00 0.00 0.01 0.01
0.01 0.01 0.02 0.02 0.03 0.03 0.03 0.04 0.05 0.06 0.07 0.06 0.05 0.06 0.06 0.06 0.05 0.04 0.04 0.03 0.02 0.02 0.02 0.02 0.01 0.01 0.01 0.01 0.01 0.00 0.00 0.00 0.00 0.00 0.00 0.01 0.01 0.01
0.01 0.01 0.02 0.02 0.02 0.03 0.04 0.05 0.05 0.06 0.07 0.07 0.07 0.06 0.06 0.05 0.05 0.04 0.04 0.04 0.04 0.03 0.02 0.02 0.02 0.02 0.01 0.01 0.01 0.01 0.01 0.01 0.01 0.00 0.00 0.00 0.01 0.01
MSLP
1017.16 1017.37 1017.71 1018.15 1018.67 1019.23 1019.82 1020.40 1020.98 1021.54 1022.09 1022.64 1023.18 1023.69 1024.17 1024.60 1024.95 1025.22 1025.39 1025.47 1025.48 1025.44 1025.37 1025.29 1025.20 1025.11 1025.02 1024.91 1024.75 1024.55 1024.30 1024.00 1023.65 1023.28 1022.90 1022.50 1022.11 1021.70
1017.19 1017.40 1017.72 1018.13 1018.62 1019.16 1019.73 1020.31 1020.90 1021.49 1022.08 1022.68 1023.27 1023.85 1024.40 1024.89 1025.31 1025.64 1025.88 1026.02 1026.09 1026.11 1026.08 1026.04 1025.98 1025.90 1025.80 1025.66 1025.48 1025.23 1024.93 1024.57 1024.17 1023.75 1023.32 1022.89 1022.46 1022.03
1017.29 1017.50 1017.80 1018.18 1018.64 1019.15 1019.69 1020.25 1020.84 1021.43 1022.04 1022.66 1023.29 1023.91 1024.49 1025.03 1025.50 1025.88 1026.17 1026.37 1026.50 1026.57 1026.60 1026.60 1026.58 1026.53 1026.44 1026.30 1026.10 1025.83 1025.50 1025.10 1024.67 1024.21 1023.74 1023.27 1022.81 1022.35
1017.46 1017.66 1017.95 1018.32 1018.74 1019.22 1019.73 1020.27 1020.83 1021.42 1022.02 1022.65 1023.28 1023.90 1024.50 1025.05 1025.54 1025.95 1026.27 1026.52 1026.69 1026.81 1026.89 1026.95 1026.97 1026.96 1026.90 1026.78 1026.59 1026.32 1025.98 1025.57 1025.12 1024.64 1024.15 1023.65 1023.16 1022.66
1017.71 1017.93 1018.21 1018.56 1018.96 1019.41 1019.89 1020.40 1020.94 1021.49 1022.08 1022.67 1023.29 1023.89 1024.47 1025.01 1025.49 1025.89 1026.22 1026.48 1026.68 1026.84 1026.96 1027.06 1027.13 1027.16 1027.15 1027.07 1026.91 1026.67 1026.35 1025.96 1025.51 1025.03 1024.52 1024.01 1023.49 1022.97
1018.06 1018.29 1018.58 1018.93 1019.32 1019.75 1020.20 1020.68 1021.17 1021.69 1022.23 1022.79 1023.36 1023.92 1024.46 1024.95 1025.39 1025.77 1026.08 1026.33 1026.54 1026.70 1026.85 1026.97 1027.08 1027.15 1027.19 1027.16 1027.05 1026.86 1026.58 1026.22 1025.80 1025.33 1024.83 1024.31 1023.78 1023.23
1018.49 1018.75 1019.06 1019.42 1019.81 1020.22 1020.65 1021.09 1021.55 1022.02 1022.51 1023.00 1023.51 1024.01 1024.49 1024.93 1025.32 1025.65 1025.92 1026.14 1026.32 1026.48 1026.62 1026.76 1026.88 1026.99 1027.06 1027.07 1027.01 1026.87 1026.64 1026.33 1025.95 1025.51 1025.03 1024.52 1023.97 1023.41
1018.97 1019.28 1019.62 1020.00 1020.40 1020.81 1021.21 1021.62 1022.03 1022.45 1022.88 1023.31 1023.75 1024.18 1024.60 1024.98 1025.31 1025.59 1025.81 1025.99 1026.13 1026.26 1026.38 1026.49 1026.62 1026.73 1026.81 1026.86 1026.84 1026.74 1026.56 1026.29 1025.95 1025.54 1025.07 1024.57 1024.03 1023.46
1019.48 1019.84 1020.22 1020.63 1021.05 1021.45 1021.84 1022.22 1022.58 1022.94 1023.31 1023.68 1024.05 1024.42 1024.78 1025.11 1025.39 1025.62 1025.80 1025.93 1026.03 1026.11 1026.19 1026.27 1026.36 1026.45 1026.53 1026.58 1026.57 1026.49 1026.34 1026.10 1025.78 1025.40 1024.95 1024.46 1023.93 1023.36
1019.97 1020.38 1020.82 1021.27 1021.70 1022.10 1022.48 1022.82 1023.14 1023.44 1023.75 1024.06 1024.39 1024.71 1025.02 1025.31 1025.56 1025.76 1025.91 1026.00 1026.06 1026.10 1026.12 1026.16 1026.19 1026.24 1026.28 1026.29 1026.27 1026.18 1026.03 1025.80 1025.49 1025.12 1024.68 1024.20 1023.68 1023.12
1020.42 1020.88 1021.37 1021.85 1022.30 1022.71 1023.06 1023.37 1023.64 1023.90 1024.16 1024.43 1024.71 1025.01 1025.30 1025.57 1025.81 1026.00 1026.13 1026.21 1026.23 1026.23 1026.20 1026.17 1026.14 1026.12 1026.10 1026.06 1025.99 1025.87 1025.69 1025.44 1025.12 1024.75 1024.31 1023.84 1023.32 1022.77
1020.80 1021.32 1021.85 1022.36 1022.82 1023.22 1023.55 1023.83 1024.07 1024.28 1024.50 1024.73 1024.99 1025.28 1025.57 1025.85 1026.10 1026.29 1026.43 1026.50 1026.50 1026.46 1026.39 1026.30 1026.20 1026.11 1026.01 1025.90 1025.76 1025.59 1025.36 1025.08 1024.74 1024.34 1023.90 1023.42 1022.91 1022.39
1021.13 1021.68 1022.24 1022.76 1023.23 1023.62 1023.93 1024.17 1024.37 1024.56 1024.75 1024.96 1025.21 1025.50 1025.80 1026.10 1026.37 1026.59 1026.74 1026.81 1026.81 1026.75 1026.63 1026.49 1026.33 1026.16 1025.99 1025.80 1025.60 1025.36 1025.08 1024.76 1024.38 1023.96 1023.51 1023.02 1022.52 1022.01
1021.40 1021.97 1022.54 1023.06 1023.51 1023.88 1024.17 1024.39 1024.56 1024.72 1024.89 1025.10 1025.35 1025.64 1025.97 1026.29 1026.58 1026.83 1026.99 1027.08 1027.07 1026.99 1026.85 1026.67 1026.46 1026.24 1026.00 1025.76 1025.49 1025.20 1024.87 1024.50 1024.09 1023.64 1023.17 1022.68 1022.18 1021.68
1021.60 1022.17 1022.72 1023.23 1023.66 1024.00 1024.27 1024.46 1024.62 1024.76 1024.93 1025.14 1025.40 1025.70 1026.04 1026.38 1026.69 1026.95 1027.13 1027.22 1027.21 1027.12 1026.97 1026.76 1026.53 1026.27 1026.00 1025.72 1025.41 1025.08 1024.72 1024.31 1023.87 1023.40 1022.91 1022.41 1021.91 1021.42
1021.72 1022.27 1022.79 1023.26 1023.66 1023.98 1024.22 1024.40 1024.55 1024.69 1024.86 1025.08 1025.34 1025.65 1025.99 1026.34 1026.65 1026.91 1027.09 1027.19 1027.18 1027.09 1026.93 1026.72 1026.48 1026.22 1025.94 1025.64 1025.32 1024.98 1024.60 1024.18 1023.72 1023.23 1022.72 1022.20 1021.70 1021.20
1021.72 1022.23 1022.71 1023.14 1023.51 1023.80 1024.03 1024.20 1024.35 1024.51 1024.69 1024.91 1025.19 1025.50 1025.83 1026.17 1026.47 1026.71 1026.88 1026.96 1026.95 1026.86 1026.71 1026.51 1026.29 1026.04 1025.78 1025.50 1025.20 1024.86 1024.48 1024.06 1023.59 1023.08 1022.56 1022.03 1021.50 1021.00
1021.56 1022.02 1022.45 1022.84 1023.17 1023.45 1023.67 1023.86 1024.03 1024.20 1024.41 1024.65 1024.92 1025.23 1025.55 1025.86 1026.13 1026.35 1026.49 1026.55 1026.53 1026.45 1026.31 1026.15 1025.95 1025.75 1025.53 1025.29 1025.02 1024.71 1024.35 1023.93 1023.46 1022.94 1022.39 1021.84 1021.28 1020.75
1021.20 1021.61 1022.00 1022.35 1022.66 1022.93 1023.16 1023.37 1023.57 1023.78 1024.01 1024.27 1024.56 1024.86 1025.16 1025.44 1025.68 1025.86 1025.97 1026.01 1025.98 1025.91 1025.80 1025.67 1025.53 1025.38 1025.21 1025.03 1024.80 1024.52 1024.18 1023.77 1023.29 1022.75 1022.18 1021.59 1020.99 1020.42
1020.64 1021.00 1021.35 1021.68 1021.98 1022.25 1022.51 1022.75 1022.99 1023.24 1023.52 1023.80 1024.10 1024.40 1024.68 1024.93 1025.13 1025.28 1025.36 1025.38 1025.36 1025.30 1025.23 1025.14 1025.05 1024.96 1024.86 1024.72 1024.54 1024.29 1023.96 1023.55 1023.06 1022.50 1021.89 1021.25 1020.61 1019.98
1019.87 1020.21 1020.53 1020.84 1021.14 1021.43 1021.72 1022.01 1022.30 1022.60 1022.91 1023.23 1023.55 1023.85 1024.12 1024.34 1024.52 1024.64 1024.71 1024.73 1024.72 1024.69 1024.65 1024.62 1024.59 1024.55 1024.49 1024.40 1024.25 1024.02 1023.70 1023.28 1022.77 1022.18 1021.52 1020.83 1020.14 1019.45
1018.93 1019.25 1019.56 1019.88 1020.19 1020.51 1020.84 1021.17 1021.52 1021.87 1022.23 1022.58 1022.91 1023.22 1023.49 1023.71 1023.88 1024.00 1024.07 1024.10 1024.11 1024.12 1024.13 1024.14 1024.15 1024.16 1024.15 1024.08 1023.95 1023.72 1023.39 1022.95 1022.41 1021.78 1021.08 1020.34 1019.59 1018.85
1017.85 1018.17 1018.49 1018.82 1019.16 1019.52 1019.89 1020.27 1020.66 1021.06 1021.46 1021.84 1022.21 1022.53 1022.81 1023.04 1023.22 1023.35 1023.44 1023.51 1023.56 1023.61 1023.66 1023.72 1023.78 1023.82 1023.82 1023.77 1023.63 1023.39 1023.03 1022.57 1021.99 1021.32 1020.58 1019.80 1019.02 1018.24
Thickness
5671 5670 5670 5670 5669 5668 5667 5665 5661 5657 5654 5653 5651 5650 5647 5645 5642 5642 5641 5638 5638 5638 5638 5639 5639 5639 5639 5638 5638 5639 5638 5638 5638 5637 5637 5637 5637 5636
5667 5667 5667 5667 5667 5665 5664 5664 5663 5660 5655 5652 5649 5648 5645 5643 5639 5639 5637 5635 5634 5634 5634 5634 5633 5633 5633 5633 5633 5633 5633 5632 5632 5632 5631 5631 5630 5630
5666 5665 5664 5664 5663 5662 5661 5661 5660 5658 5653 5650 5648 5645 5642 5641 5637 5637 5636 5634 5632 5630 5630 5629 5629 5628 5628 5628 5627 5627 5627 5627 5627 5626 5626 5625 5624 5624
5663 5663 5662 5661 5660 5659 5657 5657 5657 5656 5653 5648 5644 5642 5640 5638 5636 5634 5633 5632 5630 5627 5626 5625 5624 5623 5623 5622 5622 5622 5621 5621 5621 5620 5620 5619 5618 5617
5660 5660 5660 5659 5657 5656 5654 5654 5653 5652 5650 5647 5643 5639 5637 5635 5632 5631 5630 5629 5628 5624 5622 5621 5620 5619 5618 5617 5617 5616 5616 5616 5615 5614 5613 5612 5612 5611
5657 5657 5657 5657 5656 5654 5652 5651 5649 5647 5645 5644 5640 5637 5634 5632 5631 5629 5628 5626 5625 5623 5620 5619 5617 5615 5614 5613 5613 5612 5611 5610 5609 5609 5608 5607 5606 5605
5654 5654 5654 5653 5652 5651 5650 5648 5646 5644 5642 5641 5639 5635 5633 5630 5630 5629 5627 5625 5623 5622 5620 5618 5616 5614 5613 5610 5609 5608 5607 5606 5605 5604 5603 5602 5600 5599
5649 5650 5649 5648 5646 5644 5644 5643 5642 5642 5641 5639 5638 5636 5634 5632 5630 5628 5626 5624 5622 5619 5618 5616 5614 5613 5612 5610 5607 5605 5604 5602 5601 5600 5598 5597 5596 5595
5645 5645 5645 5645 5643 5644 5640 5637 5637 5636 5637 5639 5638 5637 5635 5633 5630 5626 5625 5623 5622 5619 5615 5614 5612 5611 5609 5607 5604 5602 5600 5599 5598 5596 5594 5593 5591 5590
5640 5640 5640 5640 5639 5639 5639 5637 5636 5635 5633 5633 5636 5636 5635 5632 5629 5626 5623 5620 5619 5614 5611 5611 5610 5609 5607 5605 5601 5599 5597 5596 5594 5593 5591 5589 5588 5586
5634 5635 5635 5635 5633 5632 5633 5634 5633 5632 5630 5628 5628 5628 5627 5625 5623 5620 5618 5615 5614 5612 5609 5608 5608 5606 5605 5603 5600 5597 5595 5593 5591 5590 5588 5586 5585 5583
5627 5627 5626 5627 5626 5625 5627 5629 5628 5629 5627 5624 5622 5622 5621 5619 5617 5617 5616 5613 5613 5611 5608 5604 5605 5602 5602 5601 5598 5595 5592 5590 5588 5586 5585 5583 5581 5580
5619 5620 5620 5618 5618 5618 5620 5623 5623 5623 5623 5622 5620 5619 5618 5617 5614 5612 5612 5611 5611 5610 5607 5602 5602 5600 5599 5598 5596 5593 5591 5589 5587 5584 5582 5580 5578 5576
5611 5612 5612 5610 5611 5611 5612 5614 5613 5613 5615 5615 5615 5614 5614 5613 5611 5609 5607 5606 5606 5606 5603 5600 5599 5596 5595 5594 5593 5591 5588 5586 5585 5583 5581 5578 5575 5573
5602 5602 5602 5602 5602 5604 5604 5605 5605 5606 5607 5608 5609 5609 5609 5608 5606 5603 5602 5600 5599 5598 5596 5595 5594 5592 5591 5590 5590 5587 5585 5583 5581 5580 5579 5577 5575 5572
5591 5592 5592 5593 5594 5595 5597 5597 5598 5600 5600 5601 5603 5603 5602 5600 5598 5597 5595 5594 5592 5591 5590 5588 5587 5586 5586 5585 5585 5583 5581 5579 5578 5575 5574 5573 5572 5571
5583 5584 5585 5587 5588 5589 5591 5591 5592 5592 5592 5594 5594 5595 5594 5593 5592 5591 5590 5589 5588 5588 5585 5582 5580 5579 5578 5578 5578 5578 5577 5576 5573 5572 5570 5570 5569 5567
5573 5576 5578 5580 5582 5583 5584 5584 5584 5585 5585 5586 5586 5587 5588 5588 5587 5585 5583 5583 5583 5583 5582 5579 5575 5573 5571 5572 5571 5573 5573 5572 5570 5568 5566 5565 5566 5565
5564 5568 5570 5572 5574 5575 5576 5577 5577 5578 5578 5578 5578 5580 5581 5581 5580 5579 5578 5578 5578 5577 5576 5574 5571 5571 5572 5573 5573 5566 5568 5567 5565 5563 5562 5561 5561 5561
5558 5561 5562 5564 5566 5567 5568 5569 5570 5570 5570 5570 5571 5572 5573 5573 5574 5574 5573 5573 5572 5571 5570 5568 5567 5568 5569 5570 5569 5566 5560 5561 5560 5559 5558 5556 5555 5553
5550 5552 5554 5556 5558 5559 5560 5561 5562 5563 5563 5563 5564 5565 5566 5567 5567 5568 5568 5566 5565 5565 5565 5564 5564 5561 5560 5560 5560 5560 5557 5553 5553 5553 5552 5550 5549 5549
5544 5545 5546 5548 5550 5551 5552 5553 5554 5555 5556 5556 5558 5559 5560 5560 5561 5561 5561 5561 5560 5560 5560 5558 5555 5552 5552 5553 5555 5555 5553 5549 5545 5543 5542 5542 5543 5544
5538 5538 5540 5540 5542 5542 5544 5545 5546 5548 5548 5549 5550 5552 5552 5553 5554 5554 5555 5554 5554 5553 5553 5551 5548 5546 5546 5546 5547 5547 5546 5544 5541 5539 5537 5535 5533 5532